Location: Unspecified
(47.6579°N, 23.5637°E)
Time: 04:13:39
(UTC+02:00)

Envisat - Pass Details

Date: 04 December 2021
Orbit: 764 x 766 km, 98.2° (Epoch: 17 January)

Event Time Altitude Azimuth Distance (km) Brightness Sun altitude
Rises 17:08:34 0° 187° (S) 3,219 6.8 -5.7°
Reaches altitude 10° 17:11:01 10° 195° (SSW) 2,298 6.1 -6.1°
Maximum altitude 17:15:43 38° 263° (W) 1,163 4.7 -6.8°
Drops below altitude 10° 17:20:27 10° 332° (NNW) 2,314 5.5 -7.5°
Sets 17:22:56 0° 340° (NNW) 3,245 6.2 -7.9°
